This is the latest recevied weather packets stored in our database for station/object OH2NJR. If no packets are shown the sender has not sent any weather packets the latest 10 day(s).
| Time | Temp. | Humidity | Pressure | Rain* | Wind** | Luminosity | Snow |
|---|---|---|---|---|---|---|---|
| 1777334329 | 2.22° C | 56% | 1016.4 hPa | 0 mm | - | - | - |
| 1777333339 | 2.22° C | 57% | 1016.4 hPa | 0 mm | - | - | - |
| 1777332239 | 2.22° C | 57% | 1016.4 hPa | 0 mm | - | - | - |
| 1777331238 | 2.22° C | - | 1016.3 hPa | 0 mm | - | - | - |
| 1777331236 | 2.22° C | 58% | 1016.3 hPa | 0 mm | - | - | - |
| 1777331233 | 2.22° C | 58% | 1016.3 hPa | 0 mm | - | - | - |
| 1777330153 | 2.22° C | 58% | 1016.3 hPa | 0 mm | - | - | - |
| 1777329084 | 2.22° C | 56% | 1016.3 hPa | 0 mm | - | - | - |
| 1777327959 | 2.78° C | 56% | 1016.3 hPa | 0 mm | - | - | - |
| 1777326833 | 2.78° C | 55% | 1016.2 hPa | 0 mm | - | - | - |
| 1777325733 | 2.78° C | 56% | 1016.3 hPa | 0 mm | - | - | - |
| 1777324586 | 2.78° C | 56% | 1016.2 hPa | 0 mm | - | - | - |
| 1777324583 | 2.78° C | 56% | 1016.2 hPa | 0 mm | - | - | - |
| 1777323423 | 2.78° C | 66% | 1015.9 hPa | 0 mm | - | - | - |
| 1777322314 | 3.33° C | 67% | 1015.8 hPa | 0 mm | - | - | - |
| 1777322309 | 3.33° C | 67% | 1015.8 hPa | 0 mm | - | - | - |
| 1777321328 | 3.33° C | 66% | 1015.8 hPa | 0 mm | - | - | - |
| 1777320301 | 3.33° C | 64% | 1015.7 hPa | 0 mm | - | - | - |
| 1777320299 | 3.33° C | 64% | 1015.7 hPa | 0 mm | - | - | - |
| 1777319320 | 3.33° C | 65% | 1015.7 hPa | 0 mm | - | - | - |
| 1777318234 | 3.33° C | 67% | 1015.7 hPa | 0 mm | - | - | - |
| 1777317198 | 3.33° C | 66% | 1015.9 hPa | 0 mm | - | - | - |
| 1777316148 | 3.89° C | 61% | 1015.9 hPa | 0 mm | - | - | - |
| 1777315004 | 4.44° C | 61% | 1015.6 hPa | 0 mm | - | - | - |
| 1777314024 | 4.44° C | 59% | 1015.3 hPa | 0 mm | - | - | - |
* Rain latest hour (hover to see other rain measurements)
** Current wind speed in m/s (hover to see current wind gust speed)